Flag for India Weather past 2 weeks in Mumbai, Maharashtra, India

Now
88 °F

Haze.


Feels Like: 96 °F
Forecast: 86 / 95 °F
Wind: 5 mph from Northeast

Location: Bombay / Santacruz

Current Time: Oct 22, 2014 at 12:50:36 AM

Latest Report: Oct 22, 2014 at 12:10 AM


Visibility: 2 mi

Pressure: 29.92 "Hg

Humidity: 62%

Dew point: 73 °F

Location of MumbaiLocation

Historic Weather in Mumbai — Graph

°F

Mumbai temperature yesterday

Maximum temperature yesterday: 97 °F (at 1:10 PM)
Minimum temperature yesterday: 82 °F (at 3:40 AM)
Average temperature yesterday: 88 °F

Past Weeks' High & Low Weather Summary

 TemperatureHumidityPressure
High99 °F (Oct 11, 1:10 PM)94% (Oct 10, 5:10 AM)29.95 "Hg (Oct 10, 5:10 AM)
Low77 °F (Oct 7, 6:40 PM)29% (Oct 12, 1:10 PM)29.65 "Hg (Oct 11, 4:10 PM)
Average87 °F68%29.80 "Hg
* Reported Oct 6 10:40 PM — Oct 21 11:10 PM, Mumbai, Weather by CustomWeather, © 2014

Note: Actual official high and low records may vary slightly from our data, if they occured in-between our weather recording intervals... More about our weather records

Advertising

Mumbai weather history for previous 24 hours

 ConditionsComfort  
Time TempWeatherWind HumidityBarometerVisibility
11:10 PM
Oct 21
88 °FHaze.3 mph59%29.92 "Hg2 mi
10:40 PM88 °FHaze.No wind59%29.92 "Hg2 mi
10:10 PM88 °FHaze.No wind62%29.92 "Hg2 mi
9:40 PM88 °FHaze.6 mph66%29.92 "Hg2 mi
9:10 PM88 °FHaze.7 mph66%29.92 "Hg2 mi
8:40 PM88 °FHaze.9 mph70%29.89 "Hg2 mi
7:40 PM88 °FHaze.7 mph66%29.86 "Hg2 mi
7:10 PM88 °FHaze.8 mph66%29.86 "Hg2 mi
6:40 PM88 °FHaze.9 mph70%29.83 "Hg2 mi
5:40 PM90 °FPassing clouds.9 mph63%29.83 "Hg2 mi
5:10 PM91 °FPassing clouds.8 mph59%29.83 "Hg2 mi
4:40 PM91 °FPassing clouds.9 mph56%29.83 "Hg2 mi
4:10 PM91 °FPassing clouds.9 mph52%29.83 "Hg2 mi
3:40 PM91 °FPassing clouds.9 mph52%29.83 "Hg2 mi
3:10 PM93 °FClear.8 mph49%29.83 "Hg2 mi
2:40 PM93 °FClear.12 mph49%29.83 "Hg2 mi
2:10 PM95 °FClear.8 mph50%29.83 "Hg2 mi
1:40 PM95 °FClear.8 mph47%29.86 "Hg2 mi
1:10 PM97 °FPassing clouds.8 mph37%29.86 "Hg2 mi
12:40 PM95 °FPassing clouds.6 mph39%29.89 "Hg2 mi
12:10 PM95 °FPassing clouds.8 mph39%29.89 "Hg2 mi
11:40 AM95 °FPassing clouds.8 mph39%29.92 "Hg2 mi
11:10 AM93 °FHaze.6 mph41%29.92 "Hg2 mi
10:40 AM93 °FHaze.13 mph41%29.95 "Hg2 mi
10:10 AM91 °FHaze.8 mph46%29.95 "Hg2 mi
9:40 AM90 °FHaze.6 mph55%29.92 "Hg2 mi
9:10 AM88 °FHaze.7 mph59%29.92 "Hg2 mi
8:40 AM86 °FHaze.5 mph66%29.92 "Hg2 mi
8:10 AM86 °FHaze.7 mph66%29.89 "Hg2 mi
7:40 AM84 °FHaze.3 mph70%29.89 "Hg2 mi
7:10 AM84 °FHaze.5 mph70%29.86 "Hg2 mi
6:10 AM84 °FHaze.5 mph70%29.86 "Hg1 mi
5:40 AM82 °FHaze.No wind74%29.83 "Hg1 mi
5:10 AM82 °FHaze.6 mph74%29.83 "Hg1 mi
4:40 AM84 °FHaze.7 mph74%29.83 "Hg1 mi
4:10 AM82 °FHaze.9 mph79%29.83 "Hg1 mi
3:40 AM82 °FHaze.8 mph79%29.83 "Hg1 mi
3:10 AM84 °FHaze.5 mph74%29.83 "Hg1 mi
2:40 AM84 °FHaze.5 mph74%29.83 "Hg1 mi
2:10 AM84 °FHaze.3 mph74%29.83 "Hg1 mi
1:40 AM84 °FHaze.5 mph70%29.86 "Hg1 mi
1:10 AM86 °FHaze.3 mph70%29.86 "Hg1 mi
12:40 AM86 °FHaze.5 mph66%29.86 "Hg1 mi
12:10 AM86 °FHaze.3 mph70%29.86 "Hg1 mi
Weather by CustomWeather, © 2014

See weather overviewHow to use our weather pages